Погода в Эмералде

Австралия     37°55′55″S   145°26′27″E
В апреле 2022 года жителям России запретили посещать сайт meteo.paraplan.net по решению Генеральной прокуратуры. Аудитория сайта уменьшилась в 10 раз. Владельцы сайта не видят смысла в поддержке погодного сервера в таких условиях. Сайт будет закрыт в октябре.
темп.,
°C
ветер,
м/с
пор.,
м/с
влажн.,
%
обл.,
%
осадки,
мм/ч
давл.,
гПа
погр.,
м
5 октября, ср
ср523:00+11вюв4126595 0.0 1024631
02:00+11в51380100 0.0 1023751
05:00+11в51283100 0.0 1023652
08:00+11в41177100 0.0 1023557
11:00+14в4863100 0.0 1023635
14:00+13в3867100 0.1 1021565
17:00+11в3997100 1.8 1020485
20:00+10вюв41298100 3.4 1020539
6 октября, чт
чт623:00+9в3999100 4.8 1020416
02:00+9вюв2599100 2.3 1019269
05:00+9вюв1499100 3.1 1018239
08:00+10вюв1399100 0.0 1018130
11:00+13с039096 0.0 1018301
14:00+19ссз3663100 0.1 10151113
17:00+18ссз2673100 0.7 1013607
20:00+16ссв2877100 0.2 1014448
7 октября, пт
пт723:00+12ссз129981 1.1 101335
02:00+12с14100100 2.6 1012158
05:00+12ссв299999 3.9 1009302
08:00+14з179599 0.4 1009388
11:00+16ссз41191100 1.3 10101066
14:00+18сз387950 2.1 10091318
17:00+14зюз2798100 4.4 1010513
20:00+11юв1299100 0.4 101399
8 октября, сб
сб823:00+10всв1198100 0.4 101522
02:00+8з3896100 0.4 1016506
05:00+5ссз239992 0.4 101882
08:00+7сз139811 0.2 1020124
11:00+12юз235177 0.3 10211687
14:00+14ююз334570 0.1 10202055
17:00+12ююз4554100 0.1 10211205
20:00+6ююв1183100 0.0 102329
9 октября, вс
вс923:00+6юв0084100 0.0 102313
02:00+6юв0381100 0.0 1022154
05:00+6ююв1187100 0.2 102259
08:00+6ююв179234 0.4 1023340
11:00+10ююз364980 0.6 10231893
14:00+11ююз454345 0.0 10221937
17:00+11ююз464861 0.0 10221762
20:00+5з11835 0.1 102419